TimeCDT,TemperatureF,Dew PointF,Humidity,Sea Level PressureIn,VisibilityMPH,Wind Direction,Wind SpeedMPH,Gust SpeedMPH,PrecipitationIn,Events,Conditions,WindDirDegrees,DateUTC
12:04 AM,37.4,35.6,93,30.01,2.5,West,29.9,43.7,0.00,Rain-Thunderstorm,Light Rain,270,2013-04-10 05:04:00
12:16 AM,37.4,35.6,93,29.88,1.8,NNW,21.9,31.1,0.11,Rain-Thunderstorm,Heavy Thunderstorms and Rain,340,2013-04-10 05:16:00
12:20 AM,37.4,35.6,93,29.87,1.8,North,19.6,31.1,0.15,Rain-Thunderstorm,Heavy Thunderstorms and Rain,10,2013-04-10 05:20:00
12:25 AM,37.4,35.6,93,29.87,3.0,North,13.8,26.5,0.15,Rain-Thunderstorm,Thunderstorms and Rain,360,2013-04-10 05:25:00
12:48 AM,39.2,39.2,100,29.86,4.0,North,10.4,-,0.22,Rain,Rain,360,2013-04-10 05:48:00
12:53 AM,39.0,39.0,100,29.86,6.0,North,13.8,-,0.23,Rain,Rain,360,2013-04-10 05:53:00
1:00 AM,39.2,39.2,100,29.85,6.0,North,15.0,-,0.01,Rain-Thunderstorm,Thunderstorms and Rain,360,2013-04-10 06:00:00
1:20 AM,39.2,39.2,100,29.86,6.0,North,9.2,-,0.07,Rain,Heavy Rain,10,2013-04-10 06:20:00
1:27 AM,39.2,39.2,100,29.86,5.0,North,8.1,-,0.09,Rain-Thunderstorm,Heavy Thunderstorms and Rain,10,2013-04-10 06:27:00
1:51 AM,39.2,39.2,100,29.85,5.0,NNE,8.1,-,0.17,Rain,Heavy Rain,20,2013-04-10 06:51:00
1:53 AM,39.9,39.9,100,29.85,5.0,NNE,9.2,-,0.18,Rain-Thunderstorm,Heavy Thunderstorms and Rain,20,2013-04-10 06:53:00
2:10 AM,41.0,39.2,93,29.77,5.0,NE,18.4,24.2,0.07,Rain-Thunderstorm,Rain,50,2013-04-10 07:10:00
2:19 AM,41.0,39.2,93,29.75,7.0,ENE,18.4,27.6,0.08,Rain,Rain,70,2013-04-10 07:19:00
2:26 AM,41.0,39.2,93,29.75,10.0,East,13.8,27.6,0.09,Rain,Light Rain,90,2013-04-10 07:26:00
2:36 AM,42.8,42.8,100,29.80,10.0,ENE,10.4,17.3,0.09,,Overcast,70,2013-04-10 07:36:00
2:53 AM,42.1,42.1,100,29.78,10.0,NE,6.9,-,0.09,,Overcast,40,2013-04-10 07:53:00
3:18 AM,42.8,41.0,93,29.81,10.0,WNW,19.6,24.2,N/A,,Overcast,300,2013-04-10 08:18:00
3:53 AM,37.9,37.9,100,29.83,10.0,NW,20.7,28.8,N/A,,Overcast,310,2013-04-10 08:53:00
4:53 AM,37.0,35.1,93,29.85,7.0,NNW,12.7,19.6,0.00,Rain,Light Rain,330,2013-04-10 09:53:00
5:53 AM,37.0,37.0,100,29.90,10.0,WNW,9.2,-,0.02,,Overcast,300,2013-04-10 10:53:00
6:53 AM,37.0,37.0,100,29.89,6.0,NNW,8.1,-,0.01,Rain,Rain,330,2013-04-10 11:53:00
7:53 AM,37.9,37.9,100,29.92,5.0,NNW,5.8,-,0.04,Rain,Light Rain,330,2013-04-10 12:53:00
8:51 AM,37.4,37.4,100,29.84,6.0,NNW,12.7,-,0.00,Rain,Light Rain,340,2013-04-10 13:51:00
8:53 AM,37.9,37.9,100,29.86,5.0,NNW,13.8,19.6,0.00,Rain,Light Rain,330,2013-04-10 13:53:00
9:53 AM,39.0,37.9,96,29.94,10.0,WNW,11.5,-,0.01,Rain,Light Rain,290,2013-04-10 14:53:00
10:06 AM,39.2,37.4,93,29.93,10.0,West,11.5,-,0.00,Rain,Light Rain,280,2013-04-10 15:06:00
10:53 AM,37.9,37.9,100,29.94,5.0,West,11.5,-,0.07,Rain,Rain,280,2013-04-10 15:53:00
11:53 AM,39.0,39.0,100,29.94,10.0,WNW,16.1,-,0.01,Rain,Light Rain,290,2013-04-10 16:53:00
12:37 PM,39.2,39.2,100,29.90,10.0,NW,13.8,-,0.00,,Overcast,310,2013-04-10 17:37:00
12:53 PM,39.0,39.0,100,29.90,10.0,NW,18.4,25.3,0.01,Rain,Light Rain,320,2013-04-10 17:53:00
1:53 PM,39.9,37.0,89,29.91,7.0,NW,12.7,-,0.00,,Overcast,320,2013-04-10 18:53:00
2:08 PM,39.2,37.4,93,29.90,3.0,NW,9.2,18.4,0.00,Rain,Light Rain,320,2013-04-10 19:08:00
2:14 PM,39.2,37.4,93,29.89,2.5,NW,11.5,18.4,0.00,Rain,Light Rain,320,2013-04-10 19:14:00
2:26 PM,39.2,37.4,93,29.89,3.0,NW,15.0,20.7,0.00,,Overcast,320,2013-04-10 19:26:00
2:33 PM,39.2,37.4,93,29.90,5.0,NW,15.0,-,0.00,Rain,Light Rain,310,2013-04-10 19:33:00
2:53 PM,39.9,39.0,97,29.90,6.0,NNW,13.8,-,0.00,Rain,Light Rain,330,2013-04-10 19:53:00
3:45 PM,41.0,39.2,93,29.86,10.0,NNW,10.4,19.6,0.00,,Overcast,340,2013-04-10 20:45:00
3:53 PM,41.0,39.0,93,29.87,10.0,NNW,13.8,18.4,0.00,,Overcast,330,2013-04-10 20:53:00
4:11 PM,39.2,39.2,100,29.85,5.0,NNW,9.2,-,0.00,Rain,Light Rain,330,2013-04-10 21:11:00
4:38 PM,39.2,37.4,93,29.79,3.0,North,15.0,21.9,0.01,Rain,Light Rain,350,2013-04-10 21:38:00
4:49 PM,39.2,39.2,100,29.80,3.0,North,10.4,21.9,0.01,,Overcast,350,2013-04-10 21:49:00
4:50 PM,39.9,39.0,97,29.82,3.0,NNW,9.2,20.7,0.01,,Overcast,340,2013-04-10 21:50:00
5:26 PM,39.2,39.2,100,29.80,6.0,NNW,10.4,-,0.01,Rain,Light Rain,330,2013-04-10 22:26:00
5:45 PM,39.2,39.2,100,29.80,3.0,NNW,9.2,-,0.01,Rain,Light Rain,340,2013-04-10 22:45:00
5:53 PM,39.0,39.0,100,29.81,3.0,NNW,9.2,-,0.02,Rain,Light Rain,340,2013-04-10 22:53:00
6:48 PM,39.2,39.2,100,29.79,6.0,NNW,10.4,-,0.01,Rain,Light Rain,340,2013-04-10 23:48:00
6:53 PM,39.0,39.0,100,29.81,7.0,NW,9.2,16.1,0.01,Rain,Light Rain,320,2013-04-10 23:53:00
7:00 PM,39.2,39.2,100,29.81,7.0,NNW,4.6,-,0.00,Rain,Light Rain,330,2013-04-11 00:00:00
7:12 PM,37.4,37.4,100,29.81,3.0,NW,9.2,-,0.01,Rain,Light Rain,310,2013-04-11 00:12:00
7:22 PM,37.4,37.4,100,29.81,3.0,NW,9.2,-,0.02,Rain,Light Rain,320,2013-04-11 00:22:00
7:41 PM,37.4,37.4,100,29.81,4.0,NW,8.1,-,0.03,Rain,Light Rain,310,2013-04-11 00:41:00
7:53 PM,37.9,37.9,100,29.83,6.0,NW,6.9,-,0.04,Rain,Light Rain,310,2013-04-11 00:53:00
8:03 PM,37.4,37.4,100,29.81,8.0,NW,9.2,-,0.01,Rain,Light Rain,310,2013-04-11 01:03:00
8:19 PM,37.4,37.4,100,29.80,9.0,NW,9.2,-,0.01,Rain,Light Rain,310,2013-04-11 01:19:00
8:26 PM,37.4,37.4,100,29.80,8.0,NW,8.1,-,0.02,Rain,Light Rain,320,2013-04-11 01:26:00
8:42 PM,37.4,37.4,100,29.81,10.0,WNW,10.4,-,0.02,,Overcast,300,2013-04-11 01:42:00
8:50 PM,37.4,37.4,100,29.81,10.0,WNW,10.4,-,0.02,,Overcast,300,2013-04-11 01:50:00
8:53 PM,37.0,37.0,100,29.83,10.0,WNW,8.1,-,0.02,Rain,Light Rain,300,2013-04-11 01:53:00
9:53 PM,37.0,36.0,96,29.83,10.0,WNW,12.7,-,0.00,,Overcast,300,2013-04-11 02:53:00
10:53 PM,36.0,35.1,97,29.83,2.0,WNW,16.1,-,0.01,,Overcast,290,2013-04-11 03:53:00
11:29 PM,35.6,35.6,100,29.80,3.0,WNW,15.0,-,N/A,,Overcast,300,2013-04-11 04:29:00
11:53 PM,35.1,35.1,100,29.82,5.0,WNW,15.0,-,N/A,,Overcast,300,2013-04-11 04:53:00